Home > Time Zones > World Clock > Weather > Japan > Kobe > Past weeks

Flag for Japan Weather past 2 weeks in Kobe, Japan

Now
72 °F

Passing clouds.


Feels Like: 75 °F
Forecast: 68 / 83 °F
Wind: 3 mph from Northeast

Location: Kansai International Airport

Current Time: Aug 30, 2014 at 2:15:52 AM

Latest Report: Aug 30, 2014 at 1:30 AM


Visibility: N/A

Pressure: 29.92 "Hg

Humidity: 69%

Dew point: 61 °F

Location of KobeLocation

Historic Weather in Kobe — Graph

°F

Kobe temperature yesterday

Maximum temperature yesterday: 81 °F (at 11:30 AM)
Minimum temperature yesterday: 72 °F (at 7:30 PM)
Average temperature yesterday: 75 °F

Past Weeks' High & Low Weather Summary

 TemperatureHumidityPressure
High91 °F (Aug 18, 1:00 PM)94% (Aug 24, 11:00 PM)29.98 "Hg (Aug 24, 11:00 PM)
Low70 °F (Aug 28, 6:00 AM)49% (Aug 27, 3:30 PM)29.71 "Hg (Aug 15, 2:00 PM)
Average82 °F75%29.87 "Hg
* Reported Aug 15 1:00 AM — Aug 30 1:00 AM, Kobe, Weather by CustomWeather, © 2014

Note: Actual official high and low records may vary slightly from our data, if they occured in-between our weather recording intervals... More about our weather records

Advertising

Kobe weather history for previous 24 hours

 ConditionsComfort  
Time TempWeatherWind HumidityBarometerVisibility
1:00 AM
Aug 30
73 °FPassing clouds.3 mph65%29.92 "HgN/A
12:30 AM73 °FPassing clouds.1 mph65%29.92 "HgN/A
12:00 AM73 °FPartly cloudy.3 mph69%29.92 "HgN/A
11:30 PM
Aug 29
73 °FPartly cloudy.6 mph78%29.95 "HgN/A
11:00 PM72 °FPartly cloudy.6 mph83%29.95 "HgN/A
10:30 PM72 °FPartly cloudy.6 mph78%29.95 "HgN/A
10:00 PM72 °FPartly cloudy.3 mph78%29.95 "HgN/A
9:30 PM72 °FPartly cloudy.2 mph78%29.95 "HgN/A
9:00 PM73 °FPartly cloudy.3 mph74%29.95 "HgN/A
8:30 PM73 °FScattered showers. Partly cloudy.5 mph74%29.95 "HgN/A
8:00 PM73 °FScattered showers. Partly cloudy.5 mph74%29.95 "HgN/A
7:30 PM72 °FLight rain. Partly cloudy.7 mph83%29.92 "HgN/A
7:00 PM73 °FLight rain. Partly cloudy.9 mph83%29.92 "HgN/A
6:30 PM75 °FLight rain. Partly cloudy.7 mph83%29.95 "HgN/A
6:00 PM75 °FLight rain. More clouds than sun.5 mph74%29.95 "HgN/A
5:30 PM75 °FLight rain. Broken clouds.6 mph78%29.92 "HgN/A
5:00 PM75 °FLight rain. Broken clouds.8 mph78%29.92 "HgN/A
4:30 PM75 °FLight rain. Broken clouds.8 mph78%29.92 "HgN/A
4:00 PM77 °FLight rain. Broken clouds.9 mph69%29.92 "HgN/A
3:30 PM77 °FScattered showers. Mostly cloudy.9 mph65%29.92 "HgN/A
3:00 PM77 °FLight rain. Mostly cloudy.6 mph69%29.92 "HgN/A
2:30 PM79 °FLight rain. Mostly cloudy.6 mph65%29.92 "HgN/A
2:00 PM79 °FPartly sunny.5 mph61%29.92 "HgN/A
1:30 PM79 °FBroken clouds.6 mph61%29.92 "HgN/A
1:00 PM79 °FBroken clouds.7 mph61%29.92 "HgN/A
12:30 PM79 °FBroken clouds.7 mph61%29.92 "HgN/A
12:00 PM79 °FBroken clouds.8 mph61%29.95 "HgN/A
11:30 AM81 °FBroken clouds.9 mph62%29.95 "HgN/A
11:00 AM79 °FBroken clouds.10 mph61%29.95 "HgN/A
10:00 AM77 °FBroken clouds.10 mph65%29.95 "HgN/A
9:30 AM77 °FBroken clouds.12 mph65%29.98 "HgN/A
9:00 AM75 °FBroken clouds.12 mph74%29.95 "HgN/A
8:30 AM75 °FBroken clouds.10 mph69%29.95 "HgN/A
8:00 AM75 °FBroken clouds.8 mph69%29.95 "HgN/A
7:30 AM75 °FBroken clouds.8 mph74%29.95 "HgN/A
7:00 AM75 °FSprinkles. Broken clouds.9 mph74%29.98 "HgN/A
6:30 AM75 °FScattered showers. Broken clouds.8 mph74%29.95 "HgN/A
6:00 AM75 °FScattered showers. Broken clouds.8 mph74%29.95 "HgN/A
5:30 AM73 °FBroken clouds.10 mph78%29.95 "HgN/A
5:00 AM73 °FPartly cloudy.9 mph74%29.95 "HgN/A
4:30 AM75 °FPartly cloudy.9 mph74%29.95 "HgN/A
4:00 AM73 °FPartly cloudy.9 mph78%29.95 "HgN/A
3:30 AM75 °FPartly cloudy.8 mph74%29.95 "HgN/A
3:00 AM75 °FPartly cloudy.9 mph74%29.95 "HgN/A
2:30 AM75 °FPartly cloudy.9 mph74%29.95 "HgN/A
2:00 AM75 °FPartly cloudy.12 mph74%29.95 "HgN/A
Weather by CustomWeather, © 2014

See weather overviewHow to use our weather pages